"Time","Value","Approval","myLocation"
"2023-05-06 00:00",3.1212452403393,"Approved","OW501"
"2023-05-06 01:00",3.1152465598492,"Approved","OW501"
"2023-05-06 02:00",3.1092478793591,"Approved","OW501"
"2023-05-06 03:00",3.11324919886899,"Approved","OW501"
"2023-05-06 04:00",3.11425051837889,"Approved","OW501"
"2023-05-06 05:00",3.11525183788878,"Approved","OW501"
"2023-05-06 06:00",3.11325315739868,"Approved","OW501"
"2023-05-06 07:00",3.11125447690858,"Approved","OW501"
"2023-05-06 08:00",3.11025579641847,"Approved","OW501"
"2023-05-06 09:00",3.11025711592837,"Approved","OW501"
"2023-05-06 10:00",3.11125843543827,"Approved","OW501"
"2023-05-06 11:00",3.10925975494816,"Approved","OW501"
"2023-05-06 12:00",3.10726107445806,"Approved","OW501"
"2023-05-06 13:00",3.10526239396795,"Approved","OW501"
"2023-05-06 14:00",3.10426371347785,"Approved","OW501"
"2023-05-06 15:00",3.10626503298775,"Approved","OW501"
"2023-05-06 16:00",3.11026635249764,"Approved","OW501"
"2023-05-06 17:00",3.10326767200754,"Approved","OW501"
"2023-05-06 18:00",3.10726899151744,"Approved","OW501"
"2023-05-06 19:00",3.10727031102733,"Approved","OW501"
"2023-05-06 20:00",3.10127163053723,"Approved","OW501"
"2023-05-06 21:00",3.10027295004713,"Approved","OW501"
"2023-05-06 22:00",3.09827426955702,"Approved","OW501"
"2023-05-06 23:00",3.10027558906692,"Approved","OW501"
"2023-05-07 00:00",3.09727690857681,"Approved","OW501"
"2023-05-07 01:00",3.09527822808671,"Approved","OW501"
"2023-05-07 02:00",3.09427954759661,"Approved","OW501"
"2023-05-07 03:00",3.0962808671065,"Approved","OW501"
"2023-05-07 04:00",3.0902821866164,"Approved","OW501"
"2023-05-07 05:00",3.0952835061263,"Approved","OW501"
"2023-05-07 06:00",3.09528482563619,"Approved","OW501"
"2023-05-07 07:00",3.09428614514609,"Approved","OW501"
"2023-05-07 08:00",3.09328746465598,"Approved","OW501"
"2023-05-07 09:00",3.09328878416588,"Approved","OW501"
"2023-05-07 10:00",3.09229010367578,"Approved","OW501"
"2023-05-07 11:00",3.09129142318567,"Approved","OW501"
"2023-05-07 12:00",3.09029274269557,"Approved","OW501"
"2023-05-07 13:00",3.08929406220547,"Approved","OW501"
"2023-05-07 14:00",3.08829538171536,"Approved","OW501"
"2023-05-07 15:00",3.08829670122526,"Approved","OW501"
"2023-05-07 16:00",3.09129802073516,"Approved","OW501"
"2023-05-07 17:00",3.09329934024505,"Approved","OW501"
"2023-05-07 18:00",3.09130065975495,"Approved","OW501"
"2023-05-07 19:00",3.08830197926484,"Approved","OW501"
"2023-05-07 20:00",3.09130329877474,"Approved","OW501"
"2023-05-07 21:00",3.09530461828464,"Approved","OW501"
"2023-05-07 22:00",3.09030593779453,"Approved","OW501"
"2023-05-07 23:00",3.09530725730443,"Approved","OW501"
"2023-05-08 00:00",3.08630857681433,"Approved","OW501"
"2023-05-08 01:00",3.08430989632422,"Approved","OW501"
"2023-05-08 02:00",3.08231121583412,"Approved","OW501"
"2023-05-08 03:00",3.08231253534402,"Approved","OW501"
"2023-05-08 04:00",3.08331385485391,"Approved","OW501"
"2023-05-08 05:00",3.08431517436381,"Approved","OW501"
"2023-05-08 06:00",3.0853164938737,"Approved","OW501"
"2023-05-08 07:00",3.0853178133836,"Approved","OW501"
"2023-05-08 08:00",3.0843191328935,"Approved","OW501"
"2023-05-08 09:00",3.08432045240339,"Approved","OW501"
"2023-05-08 10:00",3.08232177191329,"Approved","OW501"
"2023-05-08 11:00",3.08232309142319,"Approved","OW501"
"2023-05-08 12:00",3.08232441093308,"Approved","OW501"
"2023-05-08 13:00",3.08332573044298,"Approved","OW501"
"2023-05-08 14:00",3.08432704995287,"Approved","OW501"
"2023-05-08 15:00",3.08332836946277,"Approved","OW501"
"2023-05-08 16:00",3.08532968897267,"Approved","OW501"
"2023-05-08 17:00",3.08933100848256,"Approved","OW501"
"2023-05-08 18:00",3.09033232799246,"Approved","OW501"
"2023-05-08 19:00",3.08733364750236,"Approved","OW501"
"2023-05-08 20:00",3.08533496701225,"Approved","OW501"
"2023-05-08 21:00",3.08833628652215,"Approved","OW501"
"2023-05-08 22:00",3.08733760603205,"Approved","OW501"
"2023-05-08 23:00",3.08733892554194,"Approved","OW501"
"2023-05-09 00:00",3.08434024505184,"Approved","OW501"
"2023-05-09 01:00",3.08034156456173,"Approved","OW501"
"2023-05-09 02:00",3.08234288407163,"Approved","OW501"
"2023-05-09 03:00",3.08034420358153,"Approved","OW501"
"2023-05-09 04:00",3.08134552309142,"Approved","OW501"
"2023-05-09 05:00",3.08134684260132,"Approved","OW501"
"2023-05-09 06:00",3.08334816211122,"Approved","OW501"
"2023-05-09 07:00",3.08334948162111,"Approved","OW501"
"2023-05-09 08:00",3.08435080113101,"Approved","OW501"
"2023-05-09 09:00",3.0843521206409,"Approved","OW501"
"2023-05-09 10:00",3.0853534401508,"Approved","OW501"
"2023-05-09 11:00",3.0853547596607,"Approved","OW501"
"2023-05-09 12:00",3.08535607917059,"Approved","OW501"
"2023-05-09 13:00",3.08535739868049,"Approved","OW501"
"2023-05-09 14:00",3.08535871819039,"Approved","OW501"
"2023-05-09 15:00",3.08536003770028,"Approved","OW501"
"2023-05-09 16:00",3.09736135721018,"Approved","OW501"
"2023-05-09 17:00",3.08936267672008,"Approved","OW501"
"2023-05-09 18:00",3.09236399622997,"Approved","OW501"
"2023-05-09 19:00",3.08936531573987,"Approved","OW501"
"2023-05-09 20:00",3.08836663524976,"Approved","OW501"
"2023-05-09 21:00",3.09136795475966,"Approved","OW501"
"2023-05-09 22:00",3.09536927426956,"Approved","OW501"
"2023-05-09 23:00",3.09337059377945,"Approved","OW501"
"2023-05-10 00:00",3.09337191328935,"Approved","OW501"
"2023-05-10 01:00",3.08937323279925,"Approved","OW501"
"2023-05-10 02:00",3.09037455230914,"Approved","OW501"
"2023-05-10 03:00",3.09037587181904,"Approved","OW501"
"2023-05-10 04:00",3.09437719132894,"Approved","OW501"
"2023-05-10 05:00",3.09237851083883,"Approved","OW501"
"2023-05-10 06:00",3.09237983034873,"Approved","OW501"
"2023-05-10 07:00",3.09238114985862,"Approved","OW501"
"2023-05-10 08:00",3.09238246936852,"Approved","OW501"
"2023-05-10 09:00",3.09238378887842,"Approved","OW501"
"2023-05-10 10:00",3.09338510838831,"Approved","OW501"
"2023-05-10 11:00",3.09438642789821,"Approved","OW501"
"2023-05-10 12:00",3.09538774740811,"Approved","OW501"
"2023-05-10 13:00",3.097389066918,"Approved","OW501"
"2023-05-10 14:00",3.0973903864279,"Approved","OW501"
"2023-05-10 15:00",3.09839170593779,"Approved","OW501"
"2023-05-10 16:00",3.10439302544769,"Approved","OW501"
"2023-05-10 17:00",3.10239434495759,"Approved","OW501"
"2023-05-10 18:00",3.10139566446748,"Approved","OW501"
"2023-05-10 19:00",3.10239698397738,"Approved","OW501"
"2023-05-10 20:00",3.09939830348728,"Approved","OW501"
"2023-05-10 21:00",3.10239962299717,"Approved","OW501"
"2023-05-10 22:00",3.10140094250707,"Approved","OW501"
"2023-05-10 23:00",3.10040226201696,"Approved","OW501"
"2023-05-11 00:00",3.10240358152686,"Approved","OW501"
"2023-05-11 01:00",3.10040490103676,"Approved","OW501"
"2023-05-11 02:00",3.10040622054665,"Approved","OW501"
"2023-05-11 03:00",3.10540754005655,"Approved","OW501"
"2023-05-11 04:00",3.10140885956645,"Approved","OW501"
"2023-05-11 05:00",3.10541017907634,"Approved","OW501"
"2023-05-11 06:00",3.10641149858624,"Approved","OW501"
"2023-05-11 07:00",3.10741281809614,"Approved","OW501"
"2023-05-11 08:00",3.10841413760603,"Approved","OW501"
"2023-05-11 09:00",3.10841545711593,"Approved","OW501"
"2023-05-11 10:00",3.10941677662582,"Approved","OW501"
"2023-05-11 11:00",3.11041809613572,"Approved","OW501"
"2023-05-11 12:00",3.11041941564562,"Approved","OW501"
"2023-05-11 13:00",3.11142073515551,"Approved","OW501"
"2023-05-11 14:00",3.11142205466541,"Approved","OW501"
"2023-05-11 15:00",3.11242337417531,"Approved","OW501"
"2023-05-11 16:00",3.1154246936852,"Approved","OW501"
"2023-05-11 17:00",3.1134260131951,"Approved","OW501"
"2023-05-11 18:00",3.115427332705,"Approved","OW501"
"2023-05-11 19:00",3.11742865221489,"Approved","OW501"
"2023-05-11 20:00",3.11742997172479,"Approved","OW501"
"2023-05-11 21:00",3.11543129123468,"Approved","OW501"
"2023-05-11 22:00",3.11543261074458,"Approved","OW501"
"2023-05-11 23:00",3.11643393025448,"Approved","OW501"
"2023-05-12 00:00",3.11443524976437,"Approved","OW501"
"2023-05-12 01:00",3.11443656927427,"Approved","OW501"
"2023-05-12 02:00",3.11443788878417,"Approved","OW501"
"2023-05-12 03:00",3.11543920829406,"Approved","OW501"
"2023-05-12 04:00",3.11444052780396,"Approved","OW501"
"2023-05-12 05:00",3.11544184731385,"Approved","OW501"
"2023-05-12 06:00",3.11544316682375,"Approved","OW501"
"2023-05-12 07:00",3.11544448633365,"Approved","OW501"
"2023-05-12 08:00",3.11644580584354,"Approved","OW501"
"2023-05-12 09:00",3.11744712535344,"Approved","OW501"
"2023-05-12 10:00",3.11744844486334,"Approved","OW501"
"2023-05-12 11:00",3.11844976437323,"Approved","OW501"
"2023-05-12 12:00",3.11945108388313,"Approved","OW501"
"2023-05-12 13:00",3.11945240339303,"Approved","OW501"
"2023-05-12 14:00",3.11945372290292,"Approved","OW501"
"2023-05-12 15:00",3.12045504241282,"Approved","OW501"
"2023-05-12 16:00",3.12845636192271,"Approved","OW501"
"2023-05-12 17:00",3.13345768143261,"Approved","OW501"
"2023-05-12 18:00",3.12445900094251,"Approved","OW501"
"2023-05-12 19:00",3.1284603204524,"Approved","OW501"
"2023-05-12 20:00",3.1254616399623,"Approved","OW501"
"2023-05-12 21:00",3.1264629594722,"Approved","OW501"
"2023-05-12 22:00",3.12646427898209,"Approved","OW501"
"2023-05-12 23:00",3.12646559849199,"Approved","OW501"
"2023-05-13 00:00",3.13346691800188,"Approved","OW501"
"2023-05-13 01:00",3.12746823751178,"Approved","OW501"
"2023-05-13 02:00",3.12746955702168,"Approved","OW501"
"2023-05-13 03:00",3.12647087653157,"Approved","OW501"
"2023-05-13 04:00",3.12747219604147,"Approved","OW501"
"2023-05-13 05:00",3.12747351555137,"Approved","OW501"
"2023-05-13 06:00",3.12847483506126,"Approved","OW501"
"2023-05-13 07:00",3.12847615457116,"Approved","OW501"
"2023-05-13 08:00",3.12747747408106,"Approved","OW501"
"2023-05-13 09:00",3.12847879359095,"Approved","OW501"
"2023-05-13 10:00",3.12848011310085,"Approved","OW501"
"2023-05-13 11:00",3.12848143261074,"Approved","OW501"
"2023-05-13 12:00",3.12848275212064,"Approved","OW501"
"2023-05-13 13:00",3.12848407163054,"Approved","OW501"
"2023-05-13 14:00",3.12948539114043,"Approved","OW501"
"2023-05-13 15:00",3.12948671065033,"Approved","OW501"
"2023-05-13 16:00",3.13248803016023,"Approved","OW501"
"2023-05-13 17:00",3.13148934967012,"Approved","OW501"
"2023-05-13 18:00",3.13149066918002,"Approved","OW501"
"2023-05-13 19:00",3.13249198868992,"Approved","OW501"
"2023-05-13 20:00",3.12749330819981,"Approved","OW501"
"2023-05-13 21:00",3.13249462770971,"Approved","OW501"
"2023-05-13 22:00",3.1304959472196,"Approved","OW501"
"2023-05-13 23:00",3.1314972667295,"Approved","OW501"
"2023-05-14 00:00",3.1274985862394,"Approved","OW501"
"2023-05-14 01:00",3.12449990574929,"Approved","OW501"
"2023-05-14 02:00",3.12250122525919,"Approved","OW501"
"2023-05-14 03:00",3.12150254476909,"Approved","OW501"
"2023-05-14 04:00",3.12050386427898,"Approved","OW501"
"2023-05-14 05:00",3.12050518378888,"Approved","OW501"
"2023-05-14 06:00",3.11950650329877,"Approved","OW501"
"2023-05-14 07:00",3.11750782280867,"Approved","OW501"
"2023-05-14 08:00",3.11550914231857,"Approved","OW501"
"2023-05-14 09:00",3.11451046182846,"Approved","OW501"
"2023-05-14 10:00",3.11451178133836,"Approved","OW501"
"2023-05-14 11:00",3.11351310084826,"Approved","OW501"
"2023-05-14 12:00",3.11251442035815,"Approved","OW501"
"2023-05-14 13:00",3.11151573986805,"Approved","OW501"
"2023-05-14 14:00",3.11151705937795,"Approved","OW501"
"2023-05-14 15:00",3.11051837888784,"Approved","OW501"
"2023-05-14 16:00",3.11651969839774,"Approved","OW501"
"2023-05-14 17:00",3.11452101790763,"Approved","OW501"
"2023-05-14 18:00",3.10952233741753,"Approved","OW501"
"2023-05-14 19:00",3.11252365692743,"Approved","OW501"
"2023-05-14 20:00",3.10652497643732,"Approved","OW501"
"2023-05-14 21:00",3.11052629594722,"Approved","OW501"
"2023-05-14 22:00",3.10252761545712,"Approved","OW501"
"2023-05-14 23:00",3.10652893496701,"Approved","OW501"
"2023-05-15 00:00",3.09853025447691,"Approved","OW501"
"2023-05-15 01:00",3.0965315739868,"Approved","OW501"
"2023-05-15 02:00",3.0945328934967,"Approved","OW501"
"2023-05-15 03:00",3.0935342130066,"Approved","OW501"
"2023-05-15 04:00",3.08753553251649,"Approved","OW501"
"2023-05-15 05:00",3.09153685202639,"Approved","OW501"
"2023-05-15 06:00",3.08953817153629,"Approved","OW501"
"2023-05-15 07:00",3.08753949104618,"Approved","OW501"
"2023-05-15 08:00",3.08554081055608,"Approved","OW501"
"2023-05-15 09:00",3.08254213006598,"Approved","OW501"
"2023-05-15 10:00",3.08054344957587,"Approved","OW501"
"2023-05-15 11:00",3.07854476908577,"Approved","OW501"
"2023-05-15 12:00",3.07754608859566,"Approved","OW501"
"2023-05-15 13:00",3.07654740810556,"Approved","OW501"
"2023-05-15 14:00",3.07554872761546,"Approved","OW501"
"2023-05-15 15:00",3.07455004712535,"Approved","OW501"
"2023-05-15 16:00",3.07855136663525,"Approved","OW501"
"2023-05-15 17:00",3.07455268614515,"Approved","OW501"
"2023-05-15 18:00",3.07555400565504,"Approved","OW501"
"2023-05-15 19:00",3.07555532516494,"Approved","OW501"
"2023-05-15 20:00",3.06755664467484,"Approved","OW501"
"2023-05-15 21:00",3.06655796418473,"Approved","OW501"
"2023-05-15 22:00",3.07255928369463,"Approved","OW501"
"2023-05-15 23:00",3.06356060320452,"Approved","OW501"
"2023-05-16 00:00",3.06656192271442,"Approved","OW501"
"2023-05-16 01:00",3.05856324222432,"Approved","OW501"
"2023-05-16 02:00",3.05856456173421,"Approved","OW501"
"2023-05-16 03:00",3.05456588124411,"Approved","OW501"
"2023-05-16 04:00",3.05656720075401,"Approved","OW501"
"2023-05-16 05:00",3.0525685202639,"Approved","OW501"
"2023-05-16 06:00",3.0525698397738,"Approved","OW501"
"2023-05-16 07:00",3.04757115928369,"Approved","OW501"
"2023-05-16 08:00",3.04757247879359,"Approved","OW501"
"2023-05-16 09:00",3.04257379830349,"Approved","OW501"
"2023-05-16 10:00",3.04257511781338,"Approved","OW501"
"2023-05-16 11:00",3.03757643732328,"Approved","OW501"
"2023-05-16 12:00",3.03757775683318,"Approved","OW501"
"2023-05-16 13:00",3.03357907634307,"Approved","OW501"
"2023-05-16 14:00",3.03358039585297,"Approved","OW501"
"2023-05-16 15:00",3.02958171536287,"Approved","OW501"
"2023-05-16 16:00",3.02958303487276,"Approved","OW501"
"2023-05-16 17:00",3.02558435438266,"Approved","OW501"
"2023-05-16 18:00",3.02858567389255,"Approved","OW501"
"2023-05-16 19:00",3.02158699340245,"Approved","OW501"
"2023-05-16 20:00",3.01958831291235,"Approved","OW501"
"2023-05-16 21:00",3.01458963242224,"Approved","OW501"
"2023-05-16 22:00",3.01259095193214,"Approved","OW501"
"2023-05-16 23:00",3.01259227144204,"Approved","OW501"
"2023-05-17 00:00",3.00859359095193,"Approved","OW501"
"2023-05-17 01:00",3.00459491046183,"Approved","OW501"
"2023-05-17 02:00",3.00359622997172,"Approved","OW501"
"2023-05-17 03:00",3.00159754948162,"Approved","OW501"
"2023-05-17 04:00",3.01259886899152,"Approved","OW501"
"2023-05-17 05:00",3.00060018850141,"Approved","OW501"
"2023-05-17 06:00",2.99660150801131,"Approved","OW501"
"2023-05-17 07:00",2.99460282752121,"Approved","OW501"
"2023-05-17 08:00",2.9916041470311,"Approved","OW501"
"2023-05-17 09:00",2.989605466541,"Approved","OW501"
"2023-05-17 10:00",2.9876067860509,"Approved","OW501"
"2023-05-17 11:00",2.98560810556079,"Approved","OW501"
"2023-05-17 12:00",2.98360942507069,"Approved","OW501"
"2023-05-17 13:00",2.98261074458058,"Approved","OW501"
"2023-05-17 14:00",2.98061206409048,"Approved","OW501"
"2023-05-17 15:00",2.97861338360038,"Approved","OW501"
"2023-05-17 16:00",2.98061470311027,"Approved","OW501"
"2023-05-17 17:00",2.97661602262017,"Approved","OW501"
"2023-05-17 18:00",2.97561734213007,"Approved","OW501"
"2023-05-17 19:00",2.97261866163996,"Approved","OW501"
"2023-05-17 20:00",2.96761998114986,"Approved","OW501"
"2023-05-17 21:00",2.97662130065976,"Approved","OW501"
"2023-05-17 22:00",2.96562262016965,"Approved","OW501"
"2023-05-17 23:00",2.96062393967955,"Approved","OW501"
"2023-05-18 00:00",2.96462525918944,"Approved","OW501"
"2023-05-18 01:00",2.95762657869934,"Approved","OW501"
"2023-05-18 02:00",2.95562789820924,"Approved","OW501"
"2023-05-18 03:00",2.95562921771913,"Approved","OW501"
"2023-05-18 04:00",2.95563053722903,"Approved","OW501"
"2023-05-18 05:00",2.95563185673893,"Approved","OW501"
"2023-05-18 06:00",2.95463317624882,"Approved","OW501"
"2023-05-18 07:00",2.95263449575872,"Approved","OW501"
"2023-05-18 08:00",2.94963581526861,"Approved","OW501"
"2023-05-18 09:00",2.94663713477851,"Approved","OW501"
"2023-05-18 10:00",2.94463845428841,"Approved","OW501"
"2023-05-18 11:00",2.9426397737983,"Approved","OW501"
"2023-05-18 12:00",2.9406410933082,"Approved","OW501"
"2023-05-18 13:00",2.9396424128181,"Approved","OW501"
"2023-05-18 14:00",2.93864373232799,"Approved","OW501"
"2023-05-18 15:00",2.93764505183789,"Approved","OW501"
"2023-05-18 16:00",2.94364637134778,"Approved","OW501"
"2023-05-18 17:00",2.94164769085768,"Approved","OW501"
"2023-05-18 18:00",2.93964901036758,"Approved","OW501"
"2023-05-18 19:00",2.93665032987747,"Approved","OW501"
"2023-05-18 20:00",2.93465164938737,"Approved","OW501"
"2023-05-18 21:00",2.93265296889727,"Approved","OW501"
"2023-05-18 22:00",2.93565428840716,"Approved","OW501"
"2023-05-18 23:00",2.93265560791706,"Approved","OW501"
"2023-05-19 00:00",2.93365692742696,"Approved","OW501"
"2023-05-19 01:00",2.93165824693685,"Approved","OW501"
"2023-05-19 02:00",2.92965956644675,"Approved","OW501"
"2023-05-19 03:00",2.92966088595664,"Approved","OW501"
"2023-05-19 04:00",2.92966220546654,"Approved","OW501"
"2023-05-19 05:00",2.92866352497644,"Approved","OW501"
"2023-05-19 06:00",2.92766484448633,"Approved","OW501"
"2023-05-19 07:00",2.92666616399623,"Approved","OW501"
"2023-05-19 08:00",2.92466748350613,"Approved","OW501"
"2023-05-19 09:00",2.92466880301602,"Approved","OW501"
"2023-05-19 10:00",2.92267012252592,"Approved","OW501"
"2023-05-19 11:00",2.92067144203582,"Approved","OW501"
"2023-05-19 12:00",2.91867276154571,"Approved","OW501"
"2023-05-19 13:00",2.91667408105561,"Approved","OW501"
"2023-05-19 14:00",2.9146754005655,"Approved","OW501"
"2023-05-19 15:00",2.9136767200754,"Approved","OW501"
"2023-05-19 16:00",2.9176780395853,"Approved","OW501"
"2023-05-19 17:00",2.92067935909519,"Approved","OW501"
"2023-05-19 18:00",2.91468067860509,"Approved","OW501"
"2023-05-19 19:00",2.91568199811499,"Approved","OW501"
"2023-05-19 20:00",2.91268331762488,"Approved","OW501"
"2023-05-19 21:00",2.90768463713478,"Approved","OW501"
"2023-05-19 22:00",2.91068595664467,"Approved","OW501"
"2023-05-19 23:00",2.90868727615457,"Approved","OW501"
"2023-05-20 00:00",2.90868859566447,"Approved","OW501"
"2023-05-20 01:00",2.90568991517436,"Approved","OW501"
"2023-05-20 02:00",2.90369123468426,"Approved","OW501"
"2023-05-20 03:00",2.90369255419416,"Approved","OW501"
"2023-05-20 04:00",2.88769387370405,"Approved","OW501"
"2023-05-20 05:00",2.90269519321395,"Approved","OW501"
"2023-05-20 06:00",2.90169651272385,"Approved","OW501"
"2023-05-20 07:00",2.90069783223374,"Approved","OW501"
"2023-05-20 08:00",2.90069915174364,"Approved","OW501"
"2023-05-20 09:00",2.89970047125353,"Approved","OW501"
"2023-05-20 10:00",2.89970179076343,"Approved","OW501"
"2023-05-20 11:00",2.89970311027333,"Approved","OW501"
"2023-05-20 12:00",2.90070442978322,"Approved","OW501"
"2023-05-20 13:00",2.90070574929312,"Approved","OW501"
"2023-05-20 14:00",2.90070706880302,"Approved","OW501"
"2023-05-20 15:00",2.89970838831291,"Approved","OW501"
"2023-05-20 16:00",2.90270970782281,"Approved","OW501"
"2023-05-20 17:00",2.90171102733271,"Approved","OW501"
"2023-05-20 18:00",2.8987123468426,"Approved","OW501"
"2023-05-20 19:00",2.9037136663525,"Approved","OW501"
"2023-05-20 20:00",2.89971498586239,"Approved","OW501"
"2023-05-20 21:00",2.89771630537229,"Approved","OW501"
"2023-05-20 22:00",2.89571762488219,"Approved","OW501"
"2023-05-20 23:00",2.89571894439208,"Approved","OW501"
"2023-05-21 00:00",2.89672026390198,"Approved","OW501"
"2023-05-21 01:00",2.89672158341188,"Approved","OW501"
"2023-05-21 02:00",2.89672290292177,"Approved","OW501"
"2023-05-21 03:00",2.89772422243167,"Approved","OW501"
"2023-05-21 04:00",2.89872554194156,"Approved","OW501"
"2023-05-21 05:00",2.89872686145146,"Approved","OW501"
"2023-05-21 06:00",2.89872818096136,"Approved","OW501"
"2023-05-21 07:00",2.89972950047125,"Approved","OW501"
"2023-05-21 08:00",2.89973081998115,"Approved","OW501"
"2023-05-21 09:00",2.89973213949105,"Approved","OW501"
"2023-05-21 10:00",2.89973345900094,"Approved","OW501"
"2023-05-21 11:00",2.89973477851084,"Approved","OW501"
"2023-05-21 12:00",2.89973609802073,"Approved","OW501"
"2023-05-21 13:00",2.89973741753063,"Approved","OW501"
"2023-05-21 14:00",2.89973873704053,"Approved","OW501"
"2023-05-21 15:00",2.90474005655042,"Approved","OW501"
"2023-05-21 16:00",2.90574137606032,"Approved","OW501"
"2023-05-21 17:00",2.90574269557022,"Approved","OW501"
"2023-05-21 18:00",2.90674401508011,"Approved","OW501"
"2023-05-21 19:00",2.90474533459001,"Approved","OW501"
"2023-05-21 20:00",2.90474665409991,"Approved","OW501"
"2023-05-21 21:00",2.9087479736098,"Approved","OW501"
"2023-05-21 22:00",2.9057492931197,"Approved","OW501"
"2023-05-21 23:00",2.90775061262959,"Approved","OW501"
"2023-05-22 00:00",2.90675193213949,"Approved","OW501"
"2023-05-22 01:00",2.90675325164939,"Approved","OW501"
"2023-05-22 02:00",2.90675457115928,"Approved","OW501"
"2023-05-22 03:00",2.90675589066918,"Approved","OW501"
"2023-05-22 04:00",2.90675721017908,"Approved","OW501"
"2023-05-22 05:00",2.90775852968897,"Approved","OW501"
"2023-05-22 06:00",2.90875984919887,"Approved","OW501"
"2023-05-22 07:00",2.91176116870877,"Approved","OW501"
"2023-05-22 08:00",2.91276248821866,"Approved","OW501"
"2023-05-22 09:00",2.91276380772856,"Approved","OW501"
"2023-05-22 10:00",2.91276512723845,"Approved","OW501"
"2023-05-22 11:00",2.91176644674835,"Approved","OW501"
"2023-05-22 12:00",2.91176776625825,"Approved","OW501"
"2023-05-22 13:00",2.91476908576814,"Approved","OW501"
"2023-05-22 14:00",2.91377040527804,"Approved","OW501"
"2023-05-22 15:00",2.91677172478794,"Approved","OW501"
"2023-05-22 16:00",2.92077304429783,"Approved","OW501"
"2023-05-22 17:00",2.91577436380773,"Approved","OW501"
"2023-05-22 18:00",2.91977568331762,"Approved","OW501"
"2023-05-22 19:00",2.92077700282752,"Approved","OW501"
"2023-05-22 20:00",2.91877832233742,"Approved","OW501"
"2023-05-22 21:00",2.91877964184731,"Approved","OW501"
"2023-05-22 22:00",2.92078096135721,"Approved","OW501"
"2023-05-22 23:00",2.92278228086711,"Approved","OW501"
"2023-05-23 00:00",2.921783600377,"Approved","OW501"
"2023-05-23 01:00",2.9237849198869,"Approved","OW501"
"2023-05-23 02:00",2.9237862393968,"Approved","OW501"
"2023-05-23 03:00",2.92178755890669,"Approved","OW501"
"2023-05-23 04:00",2.92478887841659,"Approved","OW501"
"2023-05-23 05:00",2.92679019792648,"Approved","OW501"
"2023-05-23 06:00",2.92879151743638,"Approved","OW501"
"2023-05-23 07:00",2.92879283694628,"Approved","OW501"
"2023-05-23 08:00",2.92879415645617,"Approved","OW501"
"2023-05-23 09:00",2.93079547596607,"Approved","OW501"
"2023-05-23 10:00",2.93279679547597,"Approved","OW501"
"2023-05-23 11:00",2.93279811498586,"Approved","OW501"
"2023-05-23 12:00",2.93279943449576,"Approved","OW501"
"2023-05-23 13:00",2.93380075400565,"Approved","OW501"
"2023-05-23 14:00",2.93580207351555,"Approved","OW501"
"2023-05-23 15:00",2.93580339302545,"Approved","OW501"
"2023-05-23 16:00",2.93880471253534,"Approved","OW501"
"2023-05-23 17:00",2.94380603204524,"Approved","OW501"
"2023-05-23 18:00",2.94380735155514,"Approved","OW501"
"2023-05-23 19:00",2.94180867106503,"Approved","OW501"